Tracking 20093 objects as of 15-Dec-2019
HD Live streaming from Space Station
objects crossing your sky now

PSLV DEB

Track PSLV DEB now!
10-day predictions


NORAD ID: 27127
Int'l Code: 2001-049BX
Perigee: 559.1 km
Apogee: 607.9 km
Inclination: 97.5 °
Period: 96.2 minutes
Semi major axis: 6954 km
RCS: 0.304 m2 (medium)
Launch date: October 22, 2001
Source: India (IND)
Launch site: SRIHARIKOTA (SRI)

Note: This is SATELLITE DEBRIS
aabbcc
Your satellite tracking list
Your tracking list is empty




NASA's NSSDC Master Catalog

Two Line Element Set (TLE):
1 27127U 01049BX  19347.86767132  .00001016  00000-0  92247-4 0  9993
2 27127  97.5421 333.8234 0035091 150.2948 261.5399 14.96952680973725
Source of the keplerian elements: AFSPC